Simultaneous Nadir Overpasses (SNOs) Predictions

Prediction of SNOs between GOES-14 and NOAA-20 Satellite Orbit:

Table of predicted SNOs for the next 14.0 days since TLE Epoch: 7/26/2018
Index Date Time (GOES-14) GOES-14 Lat,Lon NOAA-20 Lat,Lon Distance(km) Time Diff (sec)
1 07/27/2018 08:35:52 -0.27,-104.41 0.59,-108.12 423.94 80
2 07/28/2018 08:19:49 -0.26,-104.41 -0.47,-103.60 93.08 80
3 07/29/2018 20:39:06 0.29,-104.57 -0.70,-108.91 494.97 80
4 07/30/2018 20:23:02 0.28,-104.58 0.30,-104.38 22.52 80
5 08/02/2018 08:23:26 -0.29,-104.45 -0.14,-105.12 77.03 80
6 08/03/2018 08:07:21 -0.28,-104.45 -1.14,-100.59 439.94 80
7 08/04/2018 20:26:39 0.31,-104.61 0.03,-105.91 148.41 80
8 08/05/2018 20:10:35 0.30,-104.62 1.03,-101.38 368.72 80
9 08/07/2018 08:29:43 -0.32,-104.47 0.14,-106.66 248.05 80
10 08/08/2018 08:13:39 -0.32,-104.47 -0.86,-102.12 268.41 80




NCC Satellite Simultaneous Nadir Overpasses (SNOs) Prediction Service
